Location: ????
(30.1475°N, 31.1342°E)
Time: 08:33:59
(UTC+00:00)

Meteor 1-14 Rocket - Pass Details

Date: 02 April 2023
Orbit: 834 x 918 km, 81.3° (Epoch: 02 June)

Event Time Altitude Azimuth Distance (km) Brightness Sun altitude
Rises 01:49:49 0° 345° (NNW) 3,394 7.4 -24.8°
Reaches altitude 10° 01:52:16 10° 341° (NNW) 2,463 6.6 -24.3°
Enters shadow 01:57:20 50° 278° (W) 1,070 4.3 -23.3°
